User: anonymous   Login
Location: Utrecht
(52.0907°N, 5.1214°E)
Time: 08:40:48
(UTC+02:00)
Language:

SPROUT - Orbit

View from above orbital plane
View from above orbital plane
View from above satellite
View from above satellite

Ground track
Ground track

The orbit data is extracted from the following two-line orbital elements,

1 39770U 14029E   22178.85164916  .00004963  00000-0  50720-3 0  9991
2 39770  97.9434 295.8533 0009485  59.0628 301.1507 14.91005471439213
Epoch (UTC): 27 June 2022 20:26:22
Eccentricity: 0.0009485
inclination: 97.9434°
perigee height: 588 km
apogee height: 601 km
right ascension of ascending node: 295.8533°
argument of perigee: 59.0628°
revolutions per day: 14.91005471
mean anomaly at epoch: 301.1507°
orbit number at epoch: 43921

The dashed part of the orbit path shows where the satellite is in the earth's shadow,  

DLR